TimePDT,TemperatureF,Dew PointF,Humidity,Sea Level PressureIn,VisibilityMPH,Wind Direction,Wind SpeedMPH,Gust SpeedMPH,PrecipitationIn,Events,Conditions,WindDirDegrees,DateUTC
12:55 AM,39.9,36.0,86,30.09,10.0,Calm,Calm,-,N/A,,Overcast,0,2012-10-27 07:55:00
1:55 AM,39.9,36.0,86,30.08,10.0,Calm,Calm,-,N/A,,Overcast,0,2012-10-27 08:55:00
2:39 AM,39.2,35.6,87,30.06,10.0,Calm,Calm,-,N/A,,Overcast,0,2012-10-27 09:39:00
2:55 AM,39.9,36.0,86,30.08,10.0,Calm,Calm,-,N/A,,Overcast,0,2012-10-27 09:55:00
3:55 AM,39.9,34.0,79,30.07,10.0,Calm,Calm,-,N/A,,Overcast,0,2012-10-27 10:55:00
4:55 AM,39.9,34.0,79,30.06,10.0,Calm,Calm,-,N/A,,Overcast,0,2012-10-27 11:55:00
5:55 AM,39.9,34.0,79,30.07,10.0,Calm,Calm,-,N/A,,Overcast,0,2012-10-27 12:55:00
7:55 AM,39.9,34.0,79,30.07,10.0,Calm,Calm,-,N/A,,Overcast,0,2012-10-27 14:55:00
8:55 AM,39.9,35.1,83,30.07,10.0,Calm,Calm,-,N/A,,Overcast,0,2012-10-27 15:55:00
9:55 AM,39.9,34.0,79,30.07,10.0,Calm,Calm,-,N/A,,Overcast,0,2012-10-27 16:55:00
10:55 AM,41.0,35.1,79,30.07,9.0,ESE,3.5,-,N/A,,Overcast,110,2012-10-27 17:55:00
11:30 AM,41.0,35.6,81,30.03,8.0,ESE,3.5,-,0.00,Rain,Light Rain,120,2012-10-27 18:30:00
11:55 AM,41.0,36.0,82,30.05,8.0,Calm,Calm,-,0.00,,Overcast,0,2012-10-27 18:55:00
12:42 PM,41.0,37.4,87,30.03,4.0,Calm,Calm,-,0.03,Rain,Light Rain,0,2012-10-27 19:42:00
12:55 PM,41.0,37.0,86,30.05,5.0,Calm,Calm,-,0.03,Rain,Light Rain,0,2012-10-27 19:55:00
1:20 PM,41.0,37.4,87,30.01,4.0,Calm,Calm,-,0.02,Rain,Light Rain,0,2012-10-27 20:20:00
1:27 PM,41.0,37.4,87,30.01,5.0,SSW,3.5,-,0.02,Rain,Light Rain,200,2012-10-27 20:27:00
1:55 PM,42.1,37.9,85,30.01,7.0,Calm,Calm,-,0.02,Rain,Light Rain,0,2012-10-27 20:55:00
2:26 PM,42.8,37.4,81,29.98,10.0,Calm,Calm,-,0.00,,Overcast,0,2012-10-27 21:26:00
2:55 PM,43.0,37.9,82,29.99,9.0,NW,3.5,-,0.00,,Overcast,310,2012-10-27 21:55:00
3:55 PM,43.0,37.0,80,29.98,9.0,North,3.5,-,N/A,,Overcast,10,2012-10-27 22:55:00
4:26 PM,42.8,37.4,81,29.95,9.0,Calm,Calm,-,N/A,,Overcast,0,2012-10-27 23:26:00
4:55 PM,43.0,37.9,82,29.98,6.0,Calm,Calm,-,N/A,,Haze,0,2012-10-27 23:55:00
5:10 PM,42.8,37.4,81,29.95,6.0,Calm,Calm,-,N/A,,Haze,0,2012-10-28 00:10:00
5:53 PM,42.8,39.2,87,29.95,5.0,Calm,Calm,-,0.00,,Overcast,0,2012-10-28 00:53:00
5:55 PM,43.0,39.0,86,29.97,5.0,Calm,Calm,-,0.00,,Overcast,0,2012-10-28 00:55:00
6:55 PM,42.1,39.0,89,29.92,4.0,Calm,Calm,-,0.05,Rain,Light Rain,0,2012-10-28 01:55:00
7:13 PM,42.8,39.2,87,29.89,3.0,Calm,Calm,-,0.06,Rain,Rain,0,2012-10-28 02:13:00
7:55 PM,42.1,39.0,89,29.90,5.0,Calm,Calm,-,0.09,,Overcast,0,2012-10-28 02:55:00
8:06 PM,42.8,39.2,87,29.88,4.0,Calm,Calm,-,N/A,,Overcast,0,2012-10-28 03:06:00
8:25 PM,42.8,39.2,87,29.89,4.0,NW,5.8,-,N/A,,Overcast,310,2012-10-28 03:25:00
8:55 PM,42.1,39.0,89,29.91,6.0,West,4.6,-,0.02,Rain,Light Rain,260,2012-10-28 03:55:00
9:03 PM,42.8,39.2,87,29.89,4.0,West,6.9,-,0.00,Rain,Light Rain,260,2012-10-28 04:03:00
9:27 PM,42.8,39.2,87,29.88,1.8,West,5.8,-,0.01,Rain,Light Rain,270,2012-10-28 04:27:00
9:43 PM,42.8,39.2,87,29.87,3.0,WNW,4.6,-,0.01,Rain,Light Rain,290,2012-10-28 04:43:00
9:55 PM,41.0,39.0,93,29.88,5.0,WNW,3.5,-,0.01,,Overcast,290,2012-10-28 04:55:00
10:07 PM,42.8,39.2,87,29.87,6.0,West,5.8,-,N/A,,Overcast,280,2012-10-28 05:07:00
10:39 PM,42.8,37.4,81,29.86,9.0,NW,5.8,-,N/A,,Overcast,310,2012-10-28 05:39:00
10:55 PM,42.1,37.9,85,29.87,10.0,North,4.6,-,N/A,,Overcast,350,2012-10-28 05:55:00
11:27 PM,42.8,37.4,81,29.85,10.0,WSW,3.5,-,N/A,,Overcast,250,2012-10-28 06:27:00
11:55 PM,42.1,37.9,85,29.86,10.0,WSW,3.5,-,N/A,,Overcast,240,2012-10-28 06:55:00